User: anonymous
Location: Unspecified
(0.0000°N, 0.0000°E)
Time: 12:29:32
(UTC+00:00)
Language:

STSS DEMO 2 (USA 209) - Orbit

View from above orbital plane
View from above orbital plane
View from above satellite
View from above satellite

Ground track
Ground track

The orbit data is extracted from the following two-line orbital elements,

1 35938U 09052B   14090.08899257 0.00000000  00000-0  00000-0 0    09
2 35938  57.9906 317.9186 0018652 143.6677 216.3322 12.79120138    00
Epoch (UTC): 31 March 2014 02:08:08
Eccentricity: 0.0018652
inclination: 57.9906°
perigee height: 1330 km
apogee height: 1359 km
right ascension of ascending node: 317.9186°
argument of perigee: 143.6677°
revolutions per day: 12.79120138
mean anomaly at epoch: 216.3322°
orbit number at epoch: 0

The dashed part of the orbit path shows where the satellite is in the earth's shadow,  

DLR